Overview Statistics Trail Chart Weather Telemetry Raw packets
 

This is the latest recevied weather packets stored in our database for station/object KC8SWY-15. If no packets are shown the sender has not sent any weather packets the latest 10 day(s).

<< 18 19 20 21 22 23 24 >>
Time Temp. Humidity Pressure Rain* Wind** Luminosity Snow
1788562827 27.78° C 76% 1012.6 hPa 0 mm - - -
1788562527 27.78° C 76% 1012.7 hPa 0 mm - - -
1788562227 27.78° C 76% 1012.6 hPa 0 mm - - -
1788562001 27.78° C 75% 1012.6 hPa 0 mm - - -
1788561927 27.78° C 75% 1012.6 hPa 0 mm - - -
1788561627 27.78° C 76% 1012.6 hPa 0 mm - - -
1788561327 27.78° C 76% 1012.4 hPa 0 mm - - -
1788561027 28.33° C 76% 1012.4 hPa 0 mm - - -
1788560727 28.33° C 75% 1012.4 hPa 0 mm - - -
1788560427 28.33° C 75% 1012.3 hPa 0 mm - - -
1788560127 28.89° C 75% 1012.1 hPa 0 mm - - -
1788559827 28.89° C 72% 1012 hPa 0 mm - - -
1788559527 28.89° C 72% 1012 hPa 0 mm - - -
1788559227 28.89° C 71% 1011.9 hPa 0 mm - - -
1788558927 28.89° C 69% 1011.8 hPa 0 mm - - -
1788558627 28.89° C 69% 1011.8 hPa 0 mm - - -
1788558327 28.89° C 69% 1011.8 hPa 0 mm - - -
1788558027 29.44° C 70% 1011.7 hPa 0 mm - - -
1788557727 28.89° C 69% 1011.8 hPa 0 mm - - -
1788557427 28.89° C 69% 1011.8 hPa 0 mm - - -
1788557127 29.44° C 71% 1011.7 hPa 0 mm - - -
1788556827 28.89° C 71% 1011.8 hPa 0 mm - - -
1788556527 28.89° C 72% 1011.8 hPa 0 mm - - -
1788556227 28.89° C 73% 1011.7 hPa 0 mm - - -
1788555927 28.89° C 74% 1011.8 hPa 0 mm - - -

* Rain latest hour (hover to see other rain measurements)
** Current wind speed in m/s (hover to see current wind gust speed)